Probability
55 58 58 42 29 39 39 29 16 13 6 3 0 0 0 0 0 0 0 0 0 0 0 0 0 0 0 0 0 3 3 3 3 3 6 16 16 10 19 16 16 6 13
39 48 48 39 35 35 26 29 19 13 10 6 0 0 0 0 0 0 0 0 0 0 0 0 0 0 0 0 0 0 0 0 0 0 0 3 6 23 10 19 16 10 10
26 32 32 35 29 35 42 26 35 26 19 6 0 0 3 0 0 0 0 0 0 0 0 0 0 0 0 0 0 0 0 0 0 0 0 3 3 10 16 13 6 16 13
16 16 19 29 29 29 35 52 58 58 42 29 3 0 6 0 0 0 0 0 0 0 0 0 0 0 0 0 0 0 0 0 0 0 0 0 0 0 10 13 3 6 6
23 26 29 32 35 39 52 65 74 74 55 35 26 26 10 3 0 0 0 0 0 0 0 0 0 0 0 0 0 0 0 0 0 0 0 0 0 0 0 6 6 6 3
23 39 39 48 71 65 65 68 81 77 68 35 29 19 16 6 0 0 0 0 0 0 0 0 0 0 0 0 0 0 0 0 0 0 0 0 0 0 0 0 0 6 6
39 48 55 52 55 52 42 39 61 61 52 23 13 10 6 3 0 0 0 0 0 0 0 0 0 0 0 0 0 0 0 0 0 0 0 0 0 0 0 0 0 0 0
29 29 32 48 42 42 26 16 19 26 10 3 3 3 0 0 0 0 0 0 0 0 0 0 0 0 0 0 0 0 0 0 0 0 0 0 0 0 0 0 0 0 0
13 6 16 26 26 19 16 6 3 3 3 3 3 0 0 0 0 0 0 0 0 0 0 0 0 0 0 0 0 0 0 0 0 0 0 0 0 0 0 0 0 0 0
0 3 10 6 6 6 3 0 0 0 0 0 0 0 0 0 0 0 0 0 0 0 0 0 0 0 0 0 0 0 0 0 0 0 0 0 0 0 0 0 0 0 0
0 0 3 3 0 0 0 0 0 0 0 0 0 0 0 0 0 0 0 0 0 0 0 0 0 0 0 0 0 0 0 0 0 0 0 0 0 0 0 0 0 0 0
0 0 0 0 0 0 0 0 0 0 0 0 0 0 0 0 0 0 0 0 0 0 0 0 0 0 0 0 0 0 0 0 0 0 0 0 0 0 0 0 0 0 0
0 0 0 0 0 0 0 0 0 0 0 0 0 0 0 0 0 0 0 0 0 0 0 0 0 0 0 0 0 0 0 0 0 0 0 0 0 0 0 0 0 0 0
0 0 0 0 0 0 0 0 0 0 0 0 0 0 0 0 0 0 0 0 0 0 0 0 0 0 0 0 0 0 0 0 0 0 0 0 0 0 0 0 0 0 0
0 0 0 0 0 0 0 0 0 0 0 0 0 0 0 0 0 0 0 0 0 0 0 0 0 0 0 0 0 0 0 0 0 0 0 0 0 0 0 0 0 0 0
0 0 0 0 0 0 0 0 0 0 0 0 0 0 0 0 0 0 0 0 0 0 0 0 0 0 0 0 0 0 0 0 0 0 0 0 0 0 0 0 0 0 0
0 0 0 0 0 0 0 0 0 0 0 0 0 0 0 0 0 0 0 0 0 0 0 0 0 0 0 0 0 0 0 0 0 0 0 0 0 0 0 0 0 0 0
0 0 0 0 0 0 0 0 0 0 0 0 0 0 0 0 0 0 0 0 0 0 0 0 0 0 0 0 0 0 0 0 0 0 0 0 0 0 0 0 0 0 0
0 0 0 0 0 0 0 0 0 0 0 0 0 0 0 0 0 0 0 0 0 0 0 0 0 0 0 0 0 0 0 0 0 0 0 0 0 0 0 0 0 0 0
0 0 0 0 0 0 0 0 0 0 0 0 0 0 0 0 0 0 0 0 0 0 0 0 0 0 0 0 0 0 0 0 0 0 0 0 0 0 0 0 0 0 0
0 0 0 0 0 0 0 0 0 0 0 0 0 0 0 0 0 0 0 0 0 0 0 0 0 0 0 0 0 0 0 0 0 0 0 0 0 0 0 0 0 0 0
0 0 0 0 0 0 0 0 0 0 0 0 0 0 0 0 0 0 0 0 0 0 0 0 0 0 0 0 0 0 0 0 0 0 0 0 0 0 0 0 0 0 0
0 0 0 0 0 0 0 0 0 0 0 0 0 0 0 0 0 0 0 0 0 0 0 0 0 0 0 0 0 0 0 0 0 0 0 0 0 0 0 0 0 0 0
0 0 0 0 0 0 0 0 0 0 0 0 0 0 0 0 0 0 0 0 0 0 0 0 0 0 0 0 0 0 0 0 0 0 0 0 0 0 0 0 0 0 0
0 0 0 0 0 0 0 0 0 0 0 0 0 0 0 0 0 0 0 0 0 0 0 0 0 0 0 0 0 0 0 0 0 0 0 0 0 0 0 0 0 0 0
0 0 0 0 0 0 0 0 0 0 0 0 0 0 0 0 0 0 0 0 0 0 0 0 0 0 0 0 0 0 0 0 0 0 0 0 0 0 0 0 0 0 0
Height
5869 5869 5870 5870 5870 5869 5868 5867 5865 5863 5860 5858 5856 5853 5851 5848 5846 5843 5841 5839 5837 5836 5834 5832 5831 5830 5828 5828 5826 5826 5825 5825 5824 5824 5824 5825 5825 5826 5827 5828 5829 5830 5832
5866 5868 5868 5868 5867 5867 5865 5863 5861 5859 5856 5854 5851 5849 5846 5843 5841 5838 5836 5834 5832 5830 5828 5826 5825 5823 5822 5821 5820 5819 5818 5818 5817 5817 5817 5817 5818 5818 5819 5820 5822 5823 5824
5866 5866 5867 5866 5865 5864 5862 5860 5858 5855 5853 5850 5847 5845 5842 5839 5836 5834 5831 5829 5827 5824 5822 5821 5819 5817 5815 5814 5813 5812 5811 5810 5810 5810 5810 5810 5810 5811 5812 5812 5814 5815 5817
5865 5865 5865 5864 5863 5862 5860 5858 5855 5853 5850 5848 5845 5842 5839 5836 5833 5830 5828 5825 5822 5820 5818 5816 5814 5812 5810 5808 5807 5805 5804 5803 5803 5802 5802 5802 5802 5802 5803 5805 5805 5807 5808
5864 5864 5864 5863 5861 5860 5858 5856 5854 5851 5849 5846 5843 5839 5836 5833 5830 5827 5824 5821 5819 5816 5814 5811 5809 5807 5804 5802 5800 5799 5797 5796 5795 5794 5794 5794 5794 5794 5795 5796 5797 5798 5800
5863 5863 5862 5860 5859 5858 5856 5854 5852 5849 5847 5844 5840 5837 5834 5830 5827 5824 5821 5818 5815 5812 5809 5806 5804 5801 5798 5796 5794 5791 5790 5788 5786 5785 5784 5784 5785 5785 5786 5787 5788 5789 5791
5862 5861 5860 5859 5858 5856 5854 5852 5850 5847 5844 5841 5838 5834 5831 5827 5824 5820 5817 5813 5810 5807 5804 5801 5798 5795 5792 5789 5786 5783 5781 5779 5777 5775 5774 5774 5774 5775 5776 5777 5778 5779 5781
5860 5859 5858 5857 5855 5854 5852 5850 5847 5844 5841 5838 5834 5830 5826 5823 5819 5815 5812 5808 5805 5801 5798 5795 5791 5788 5784 5781 5778 5774 5772 5769 5767 5765 5764 5763 5762 5763 5764 5766 5767 5769 5771
5858 5857 5856 5854 5853 5851 5849 5847 5844 5841 5838 5834 5830 5826 5822 5818 5814 5810 5806 5802 5798 5795 5791 5787 5783 5780 5776 5772 5768 5765 5762 5759 5756 5754 5752 5751 5750 5751 5752 5753 5755 5758 5760
5856 5855 5853 5851 5850 5848 5846 5843 5840 5837 5833 5829 5824 5820 5816 5812 5808 5804 5800 5795 5791 5787 5783 5779 5775 5770 5766 5762 5758 5754 5751 5748 5745 5742 5740 5739 5738 5738 5739 5740 5742 5745 5748
5854 5852 5850 5848 5846 5844 5842 5839 5835 5832 5827 5823 5819 5814 5810 5806 5801 5797 5793 5788 5784 5779 5774 5770 5765 5760 5756 5751 5747 5743 5739 5736 5733 5730 5728 5726 5725 5725 5726 5727 5729 5732 5735
5850 5848 5846 5844 5842 5840 5837 5834 5830 5826 5822 5817 5813 5808 5804 5799 5794 5790 5785 5781 5776 5770 5765 5760 5755 5749 5744 5740 5735 5731 5727 5723 5720 5717 5715 5714 5713 5712 5713 5714 5716 5719 5722
5847 5845 5842 5840 5838 5835 5832 5829 5824 5820 5816 5811 5806 5802 5797 5792 5787 5782 5777 5772 5767 5761 5755 5750 5744 5738 5732 5727 5722 5718 5714 5710 5707 5705 5702 5701 5700 5700 5700 5701 5703 5706 5709
5842 5840 5838 5836 5833 5830 5827 5823 5818 5814 5809 5805 5800 5795 5790 5785 5780 5775 5769 5763 5758 5752 5745 5739 5732 5726 5720 5715 5710 5705 5701 5698 5695 5692 5690 5689 5688 5688 5688 5689 5691 5693 5696
5837 5835 5833 5830 5827 5824 5821 5817 5812 5808 5803 5798 5794 5789 5783 5778 5773 5767 5761 5754 5748 5741 5734 5728 5721 5714 5708 5703 5698 5693 5689 5685 5682 5680 5678 5676 5676 5675 5676 5677 5678 5680 5684
5832 5830 5827 5824 5822 5818 5815 5810 5806 5802 5797 5792 5787 5782 5776 5771 5765 5759 5752 5745 5738 5731 5723 5716 5709 5702 5696 5691 5686 5681 5677 5673 5670 5667 5665 5664 5663 5663 5663 5664 5665 5668 5670
5827 5824 5821 5819 5815 5812 5808 5804 5799 5795 5790 5785 5780 5775 5769 5763 5757 5750 5743 5735 5727 5720 5712 5705 5697 5691 5685 5679 5674 5669 5665 5662 5658 5656 5653 5652 5651 5650 5650 5651 5652 5654 5657
5821 5818 5815 5812 5809 5805 5801 5797 5792 5787 5783 5778 5773 5767 5761 5755 5748 5740 5733 5725 5717 5709 5701 5693 5686 5680 5674 5668 5663 5659 5655 5651 5647 5645 5642 5640 5638 5637 5637 5637 5639 5640 5643
5815 5812 5809 5806 5802 5798 5794 5789 5785 5780 5775 5770 5765 5759 5752 5746 5738 5730 5722 5714 5706 5698 5690 5682 5675 5669 5663 5658 5653 5648 5644 5640 5637 5634 5631 5629 5627 5625 5624 5624 5625 5626 5629
5808 5805 5802 5798 5794 5790 5786 5781 5777 5772 5767 5761 5756 5749 5743 5736 5728 5720 5712 5704 5695 5687 5679 5672 5665 5659 5653 5648 5643 5638 5634 5631 5627 5623 5620 5617 5615 5613 5611 5610 5611 5613 5615
5801 5798 5794 5790 5786 5782 5777 5773 5768 5763 5758 5752 5746 5740 5733 5726 5718 5710 5702 5693 5685 5677 5670 5663 5656 5650 5644 5639 5634 5629 5625 5621 5617 5613 5609 5606 5603 5601 5599 5598 5599 5600 5601
5793 5789 5786 5782 5777 5773 5768 5763 5759 5754 5748 5743 5737 5730 5723 5716 5708 5699 5691 5683 5675 5668 5660 5653 5647 5641 5635 5630 5625 5620 5616 5611 5607 5603 5599 5596 5593 5590 5588 5586 5586 5586 5587
5784 5780 5777 5772 5768 5763 5758 5753 5748 5743 5738 5732 5726 5720 5712 5705 5697 5688 5680 5673 5665 5658 5651 5645 5638 5632 5626 5621 5616 5611 5607 5602 5598 5593 5589 5586 5582 5580 5577 5575 5573 5573 5574
5775 5771 5767 5763 5758 5753 5748 5743 5738 5733 5727 5721 5715 5709 5701 5694 5685 5678 5670 5663 5656 5649 5643 5636 5630 5624 5618 5613 5608 5603 5598 5593 5589 5584 5580 5576 5573 5570 5567 5564 5562 5561 5561
5765 5761 5757 5753 5748 5743 5737 5732 5727 5721 5715 5710 5704 5697 5690 5682 5675 5667 5660 5653 5646 5640 5634 5628 5622 5616 5611 5605 5600 5594 5590 5585 5580 5576 5572 5568 5564 5561 5558 5555 5552 5550 5548
5755 5751 5747 5742 5737 5732 5726 5721 5715 5709 5704 5698 5692 5685 5678 5671 5663 5656 5650 5643 5637 5631 5625 5619 5614 5608 5603 5597 5592 5587 5582 5577 5572 5568 5563 5560 5556 5552 5549 5546 5543 5539 5537
Wind_Speed
10 9 6 5 6 7 8 10 12 13 15 16 17 18 19 19 19 19 20 20 21 21 22 23 23 24 25 25 25 25 25 26 26 27 27 28 29 29 30 30 29 29 28
6 4 2 3 5 7 9 11 13 15 16 17 18 19 20 20 20 20 19 19 20 21 21 22 23 24 24 25 25 25 26 26 26 26 27 28 29 30 31 31 31 31 30
1 1 2 4 7 9 12 13 15 16 18 18 18 19 19 19 19 19 19 18 18 19 20 21 22 23 23 24 24 25 26 27 27 27 27 28 30 30 31 31 32 32 32
3 3 4 6 9 11 13 15 16 17 17 18 18 18 18 18 18 18 17 17 17 17 18 19 19 21 22 23 24 25 26 27 27 28 29 29 30 31 31 31 32 32 33
4 5 7 9 11 13 15 16 16 17 17 17 17 17 18 18 18 18 17 17 17 17 18 18 19 20 22 23 24 25 27 28 29 30 30 31 31 32 33 33 33 33 34
7 8 10 11 13 15 16 16 17 17 17 18 18 18 18 19 19 19 19 18 18 18 19 20 21 22 23 24 26 27 29 30 31 33 33 34 34 35 35 35 36 36 36
10 11 12 13 15 16 17 17 18 18 18 18 18 18 19 20 20 20 20 20 20 20 21 22 23 24 25 26 28 29 30 31 33 34 35 36 37 37 38 38 38 39 39
12 13 14 15 17 17 18 18 19 19 19 19 19 20 21 22 22 22 22 23 23 24 25 26 26 27 27 29 30 31 32 33 34 36 37 38 39 40 40 41 41 41 42
14 15 16 17 18 18 19 19 20 20 20 21 21 22 23 23 24 24 25 25 26 27 28 29 30 30 31 31 32 33 33 34 35 36 37 39 40 41 41 42 43 43 44
15 16 17 18 18 19 19 20 20 20 21 22 23 24 25 25 26 27 27 28 28 29 30 32 33 34 34 35 35 35 35 35 36 36 37 38 40 41 42 43 44 45 46
16 16 17 17 18 19 19 20 20 21 22 23 25 26 27 27 28 29 29 30 31 32 33 34 36 37 37 38 38 37 37 36 36 36 37 37 39 40 42 43 44 45 47
15 16 17 17 18 19 19 20 21 22 24 25 27 28 28 29 30 31 32 33 34 36 37 38 39 40 41 41 40 39 38 37 36 36 37 37 38 39 40 42 43 44 46
16 16 17 17 18 18 19 20 22 24 26 27 28 29 30 31 33 33 34 36 37 38 40 41 42 43 43 42 41 40 39 37 37 36 36 36 37 38 39 40 42 43 45
17 17 17 18 18 19 20 22 24 26 28 29 30 31 32 33 34 35 37 39 40 42 43 44 45 45 44 43 42 40 39 37 36 36 35 35 36 37 38 39 40 42 44
17 17 17 18 19 20 22 24 26 28 29 30 31 32 34 35 36 38 40 42 43 45 46 46 46 45 44 43 41 40 38 37 36 35 35 35 35 36 37 38 40 41 43
17 18 18 19 21 22 24 27 28 29 30 31 32 33 35 36 38 41 43 45 46 47 47 47 45 44 43 42 40 38 36 36 35 35 35 35 34 35 36 38 40 42 43
18 19 20 21 23 25 27 29 30 31 31 32 33 34 36 37 40 43 45 47 47 47 47 46 44 43 42 40 38 36 35 34 34 34 34 34 34 35 35 37 39 41 43
20 21 22 24 26 27 29 31 31 32 32 33 35 36 37 40 43 46 48 49 49 48 47 45 43 41 40 38 36 35 33 32 32 32 33 33 34 35 36 37 38 40 42
22 23 24 26 28 30 32 33 33 32 33 34 36 37 40 42 45 48 50 50 50 48 45 43 41 39 38 36 35 33 32 31 31 31 31 32 33 34 35 36 38 39 41
25 26 27 29 31 33 34 34 34 34 35 37 38 40 42 45 48 50 51 51 49 46 43 41 39 37 36 34 33 32 31 30 30 31 32 32 33 34 35 35 36 37 39
28 29 31 33 34 35 36 37 36 36 38 39 40 42 45 47 49 51 52 51 48 45 42 39 38 36 34 33 32 31 30 29 29 30 30 31 31 32 33 33 34 35 38
31 33 34 35 37 38 39 40 40 40 40 41 43 46 48 49 51 52 51 50 47 43 40 38 36 35 33 32 31 30 29 28 29 29 29 29 29 29 31 32 33 35 37
34 35 37 38 40 41 42 43 43 44 43 43 45 47 49 51 52 52 51 49 46 42 39 37 35 34 33 31 30 29 28 27 27 27 27 27 28 28 28 29 30 32 35
36 38 39 40 42 44 46 47 47 46 46 46 48 50 52 52 51 51 50 48 45 41 38 36 34 33 32 31 30 29 28 28 27 27 26 26 26 27 26 27 29 30 32
39 40 41 42 45 48 50 51 50 49 48 48 50 51 52 52 51 50 48 46 43 40 38 36 33 32 31 31 30 29 28 28 27 26 25 25 25 25 25 26 27 29 30
42 42 44 45 47 50 51 52 54 53 51 51 52 52 53 52 51 49 47 44 41 39 37 35 33 32 31 30 29 29 28 27 26 25 24 24 24 23 24 24 25 25 26
Wind_Direction
263 271 280 290 307 318 322 323 323 323 322 321 320 319 316 312 307 303 300 296 293 290 288 286 285 284 282 281 280 278 277 275 273 270 267 264 262 260 258 258 257 254 252
267 268 303 330 333 333 334 333 331 331 330 328 326 323 321 319 316 313 309 304 299 296 293 291 289 288 286 284 281 279 278 276 274 271 268 265 263 260 259 257 256 253 251
51 28 6 351 345 341 338 335 334 334 332 330 327 324 322 321 320 317 314 310 306 302 298 295 293 291 289 288 286 283 280 278 275 272 269 266 264 262 259 257 254 252 250
38 23 1 350 344 340 338 335 333 331 328 327 326 326 326 325 324 322 319 317 314 311 307 303 300 297 295 293 291 288 285 281 277 274 270 267 264 262 260 257 255 252 248
15 358 346 341 338 337 334 330 328 326 325 326 327 328 328 328 327 325 323 321 319 317 314 311 308 305 301 298 295 292 288 284 280 276 271 268 265 261 259 257 255 252 249
344 339 334 331 329 327 325 322 322 323 323 323 324 326 326 327 327 326 324 322 321 319 318 315 312 309 306 302 299 294 290 286 282 278 274 269 265 261 258 256 254 252 249
328 323 321 320 319 318 318 317 317 319 319 320 322 324 325 325 325 324 323 321 320 319 319 316 314 311 308 305 302 298 293 288 284 279 275 271 267 262 258 255 253 251 249
317 315 313 312 312 312 312 312 313 315 316 318 320 322 323 322 322 321 319 318 317 316 316 316 314 311 309 306 303 299 294 290 285 281 276 271 268 263 259 255 252 250 248
309 308 307 306 306 306 308 309 311 313 314 317 320 322 322 321 321 320 318 317 315 314 314 314 313 311 309 306 303 299 295 291 286 281 276 272 268 263 259 255 252 249 247
303 302 301 301 301 303 305 308 311 314 317 321 323 323 323 321 320 319 318 317 315 314 313 313 312 310 308 305 303 299 296 292 287 282 277 272 267 263 259 255 252 249 246
298 298 298 298 300 302 305 309 313 318 322 323 324 324 323 322 321 319 318 317 316 314 312 312 310 309 307 305 302 299 296 292 287 282 277 273 269 264 260 255 252 248 246
296 298 298 299 301 304 308 313 318 323 324 325 325 325 324 324 322 320 318 317 316 315 313 312 310 309 306 305 302 299 296 292 287 282 277 272 268 264 260 256 252 249 245
296 298 299 301 304 307 312 318 323 325 327 327 326 326 326 325 324 322 320 318 317 315 314 312 311 309 306 304 302 299 296 292 287 282 277 272 268 264 261 257 253 249 245
298 299 301 303 306 311 317 322 325 326 326 327 327 327 326 325 324 323 320 319 317 316 314 312 310 308 306 304 302 299 296 292 287 282 277 273 269 264 261 257 253 249 246
298 300 303 306 310 315 319 322 323 324 326 327 327 327 326 325 323 322 320 318 317 316 314 313 310 308 305 303 301 299 296 292 287 282 278 274 270 266 261 258 255 251 247
300 302 305 309 313 315 317 319 321 323 325 326 326 326 326 325 324 323 322 320 319 317 315 314 311 308 305 303 301 299 295 291 287 284 280 276 272 268 264 259 255 252 248
303 305 308 310 312 313 315 318 320 322 322 323 324 324 324 324 325 325 325 323 321 319 317 315 312 309 306 304 301 299 296 292 289 286 282 278 274 271 266 261 256 252 249
304 306 307 309 311 313 315 317 319 320 320 321 322 323 323 323 325 326 326 325 323 321 319 316 313 310 308 305 302 300 297 294 290 287 283 280 276 272 268 263 258 254 251
305 305 307 308 311 312 314 316 317 318 318 320 322 323 324 324 325 327 327 326 324 322 320 317 313 311 309 307 304 301 298 295 292 289 286 282 278 275 271 266 260 256 252
304 305 307 308 310 311 313 314 314 314 316 318 320 323 324 325 326 327 327 326 325 323 321 318 315 313 310 309 306 303 300 296 293 291 287 283 279 276 273 268 263 257 252
304 305 307 308 310 311 312 312 313 313 314 317 319 321 323 325 326 327 326 325 325 323 321 318 316 314 312 310 307 305 301 298 296 293 289 286 282 278 273 268 263 258 254
305 306 307 308 310 310 311 311 311 311 313 316 318 319 320 324 325 326 325 325 324 323 320 319 317 315 313 311 308 306 303 301 299 295 291 288 285 281 276 271 265 260 256
304 306 307 308 308 309 309 309 309 309 310 314 316 316 319 323 324 324 324 324 324 322 320 319 318 316 314 312 310 308 305 303 302 298 294 290 288 284 281 275 269 264 259
302 304 305 306 306 306 306 305 306 307 307 311 313 315 319 322 322 322 322 322 322 321 321 320 318 316 314 313 311 309 307 304 303 301 296 292 289 286 283 279 274 269 263
300 302 302 302 303 303 303 302 302 305 308 311 313 315 318 319 320 320 320 319 319 320 320 319 318 316 314 312 312 310 308 307 305 302 299 297 293 290 288 285 280 274 269
297 298 299 298 298 300 300 301 303 305 307 309 310 313 315 317 317 317 317 316 316 317 317 318 317 316 313 312 313 312 310 308 306 304 303 301 296 293 292 290 286 279 271